Weather History for Ann Arbor, MI

Change the Weather History Date:

Thursday, March 1, 2012

  Actual Average Record
Temperature  
Mean Temperature 38 °F -  
Max Temperature 42 °F 34 °F 52 °F (2004)
Min Temperature 33 °F 18 °F 10 °F (2011)
Degree Days  
Heating Degree Days 28    
Moisture  
Dew Point 31 °F    
Average Humidity 79    
Maximum Humidity 92    
Minimum Humidity 61    
Precipitation  
Precipitation 0.01 in - - ()
Sea Level Pressure  
Sea Level Pressure 29.74 in    
Wind  
Wind Speed 13 mph (West)    
Max Wind Speed 26 mph    
Max Gust Speed 51 mph    
Visibility 9 miles    
Events Rain , Snow    
Averages and records for this station are not official NWS values.
T = Trace of Precipitation, MM = Missing Value Source: NWS Daily Summary

Daily Weather History Graph

Daily Weather History Graph

Search for Another Location

Airport:

Trip Planner

Search our weather history database for the weather conditions in past years. The results will help you decide how hot, cold, wet, or windy it might be!

Date:

Astronomy

Mar. 01, 2012 Rise Set
Actual Time 7:09 AM EST 6:25 PM EST
Civil Twilight 6:41 AM EST 6:53 PM EST
Nautical Twilight 6:08 AM EST 7:26 PM EST
Astronomical Twilight 5:36 AM EST 7:58 PM EST
Moon 11:39 AM EST (3/1) 2:12 AM EST (3/1)
Length of Visible Light 12h 12m
Length of Day
11h 16m
First Quarter, 56% of the Moon is Illuminated
Mar 1
First Quarter
Mar 8
Full
Mar 14
Last Quarter
Mar 22
New
Mar 30
First Quarter

Hourly Weather History & Observations

Time (EST) Temp. Windchill Dew Point Humidity Pressure Visibility Wind Dir Wind Speed Gust Speed Precip Events Conditions
12:53 AM 37.0 °F 28.5 °F 33.1 °F 86% 29.58 in 9.0 mi West 13.8 mph 21.9 mph 0.00 in Rain Light Rain
1:14 AM 35.6 °F 25.9 °F 30.2 °F 81% 29.57 in 10.0 mi West 16.1 mph - 0.00 in   Overcast
1:53 AM 36.0 °F 26.3 °F 30.0 °F 79% 29.59 in 10.0 mi West 16.1 mph 25.3 mph 0.00 in   Overcast
2:43 AM 35.6 °F 27.5 °F 30.2 °F 81% 29.58 in 10.0 mi West 11.5 mph - N/A   Overcast
2:53 AM 35.1 °F 26.4 °F 30.9 °F 85% 29.60 in 10.0 mi WSW 12.7 mph - N/A   Overcast
3:53 AM 35.1 °F 22.5 °F 30.9 °F 85% 29.61 in 9.0 mi WSW 26.5 mph 50.6 mph N/A   Overcast
4:11 AM 33.8 °F 24.8 °F 30.2 °F 87% 29.60 in 9.0 mi SW 12.7 mph 32.2 mph N/A   Overcast
4:53 AM 34.0 °F 26.6 °F 32.0 °F 92% 29.62 in 6.0 mi SW 9.2 mph - N/A   Overcast
5:53 AM 35.1 °F 26.4 °F 32.0 °F 89% 29.64 in 10.0 mi WSW 12.7 mph 20.7 mph N/A   Overcast
6:53 AM 35.1 °F 26.9 °F 32.0 °F 89% 29.66 in 5.0 mi WSW 11.5 mph - N/A   Overcast
7:53 AM 35.1 °F 26.9 °F 32.0 °F 89% 29.69 in 3.0 mi West 11.5 mph - 0.01 in Snow Light Snow
8:38 AM 35.6 °F 28.0 °F 32.0 °F 87% 29.70 in 10.0 mi West 10.4 mph - 0.00 in   Overcast
8:53 AM 35.1 °F 25.5 °F 32.0 °F 89% 29.73 in 10.0 mi West 15.0 mph - 0.00 in   Overcast
9:06 AM 35.6 °F 27.1 °F 30.2 °F 81% 29.71 in 10.0 mi West 12.7 mph - N/A   Overcast
9:53 AM 36.0 °F 28.5 °F 30.9 °F 82% 29.74 in 10.0 mi WNW 10.4 mph - N/A   Overcast
10:53 AM 37.9 °F 28.9 °F 32.0 °F 79% 29.76 in 10.0 mi West 16.1 mph - N/A   Overcast
11:53 AM 39.9 °F 32.1 °F 33.1 °F 77% 29.78 in 10.0 mi WSW 13.8 mph - N/A   Mostly Cloudy
12:20 PM 41.0 °F 32.8 °F 33.8 °F 76% 29.77 in 10.0 mi West 16.1 mph 25.3 mph N/A   Overcast
1:33 PM 42.8 °F 35.8 °F 30.2 °F 61% 29.78 in 10.0 mi West 13.8 mph 19.6 mph N/A   Overcast
1:53 PM 42.1 °F 34.5 °F 30.9 °F 65% 29.80 in 10.0 mi West 15.0 mph - N/A   Overcast
2:39 PM 41.0 °F 33.1 °F 30.2 °F 65% 29.80 in 10.0 mi West 15.0 mph 23.0 mph N/A   Overcast
2:53 PM 42.1 °F 34.9 °F 32.0 °F 67% 29.81 in 10.0 mi West 13.8 mph 20.7 mph N/A   Overcast
3:53 PM 42.1 °F 36.1 °F 30.9 °F 65% 29.83 in 10.0 mi West 10.4 mph - N/A   Overcast
4:53 PM 39.9 °F 32.5 °F 30.9 °F 70% 29.84 in 10.0 mi WSW 12.7 mph - N/A   Overcast
5:53 PM 39.0 °F 32.8 °F 30.0 °F 70% 29.86 in 10.0 mi West 9.2 mph - N/A   Overcast
6:53 PM 37.9 °F 32.7 °F 30.9 °F 76% 29.88 in 10.0 mi WSW 6.9 mph - N/A   Overcast
7:53 PM 37.0 °F 33.3 °F 30.9 °F 79% 29.89 in 10.0 mi WSW 4.6 mph - N/A   Overcast
8:53 PM 37.0 °F 34.5 °F 30.9 °F 79% 29.89 in 10.0 mi WSW 3.5 mph - N/A   Overcast
9:53 PM 37.0 °F - 30.9 °F 79% 29.88 in 10.0 mi Calm Calm - N/A   Overcast
10:53 PM 37.0 °F 33.3 °F 33.1 °F 86% 29.90 in 9.0 mi SSW 4.6 mph - N/A   Overcast
11:53 PM 37.0 °F - 32.0 °F 82% 29.89 in 10.0 mi Calm Calm - N/A   Overcast